Regional Weather Roundup
Issued by NWS Jackson, KY

Home | Current Version | Previous Version | Text Only | Print | Product List | Glossary On
Versions: 1 2 3 4 5 6 7 8 9 10 11 12 13 14 15 16 17 18 19 20 21 22 23 24 25 26 27 28 29 30 31 32 33 34 35 36 37 38 39 40 41 42 43 44 45 46 47 48 49 50
000
ASUS43 KJKL 290710
RWRJKL

EAST KENTUCKY HOURLY WEATHER ROUNDUP
NATIONAL WEATHER SERVICE JACKSON KY
300 AM EDT SUN MAR 29 2015

NOTE: "FAIR" INDICATES FEW OR NO CLOUDS BELOW 12,000 FEET WITH
NO SIGNIFICANT WEATHER AND/OR OBSTRUCTIONS TO VISIBILITY.

* THESE REPORTS ARE NOT UNDER NWS QUALITY CONTROL AND MAY NOT
  REPORT WEATHER SUCH AS PRECIPITATION AND FOG.

KYZ079-080-083-085-087-088-110-112-115-119-120-290800
...EASTERN KENTUCKY...

CITY           SKY/WX    TMP DP  RH WIND       PRES   REMARKS
JACKSON        CLEAR     26   8  46 CALM      30.34R
LONDON         CLEAR     25  17  72 CALM      30.33F
SOMERSET*      CLEAR     25  19  80 CALM      30.37S
MONTICELLO*    CLEAR     19  17  92 CALM      30.38R
MIDDLESBORO*   CLEAR     25  20  83 CALM      30.36R
HAZARD APT*    SUNNY     25  14  63 CALM      30.35
BLACK MTN*       N/A     14  12  92 N5          N/A  WCI   6
PIKEVILLE APT* CLEAR     25   9  50 NE3       30.33S
BIG SANDY*     SUNNY     25  11  57 CALM      30.35S
MOREHEAD APT*  MOSUNNY   25  12  58 SE3       30.38R
$$

KYZ035-036-041-042-044-050-067-078-099-290800
...CENTRAL KENTUCKY...

CITY           SKY/WX    TMP DP  RH WIND       PRES   REMARKS
MT STERLING*   CLEAR     21  19  93 CALM      30.38R
FLEMING/MASON* CLEAR     21  14  73 SE5       30.37S WCI  15
DANVILLE*      CLEAR     23  18  80 CALM      30.36S
RICHMOND*      CLEAR     25  16  68 SE3       30.35R
LEXINGTON      CLEAR     26  13  57 E6        30.36R WCI  19
FRANKFORT      CLEAR     22  15  75 CALM      30.35S
$$

KYZ091>093-OHZ055-061-077-WVZ005-015-034-035-042-290800
...SOUTHERN OHIO/WEST VIRGINIA...

CITY           SKY/WX    TMP DP  RH WIND       PRES   REMARKS
COVINGTON      CLEAR     25  15  66 E3        30.35S
COLUMBUS       CLEAR     20  15  81 SE3       30.35S
DAYTON         CLEAR     25  14  63 S7        30.33F WCI  17
WILMINGTON     CLEAR     23  15  71 SE3       30.34S
HUNTINGTON     CLEAR     23  12  62 E3        30.37R
CHARLESTON     CLEAR     23  11  60 CALM      30.36R
PINEVILLE*     CLEAR     20  17  87 MISG      30.36R
BECKLEY        CLEAR     19   6  57 NW7       30.25R WCI  10
BLUEFIELD      CLEAR     20   6  55 W5        30.23R WCI  13
$$

VAZ002-007-008-TNZ017-027-036-066-071-290800
...SOUTHWEST VIRGINIA/EAST TENNESSEE...

CITY           SKY/WX    TMP DP  RH WIND       PRES   REMARKS
WISE*          CLEAR     23  10  58 CALM      30.27S
JONESVILLE*    SUNNY     23  18  80 CALM      30.36R
ABINGDON*      CLEAR     28   8  43 NW5       30.29R WCI  23
BRISTOL        CLEAR     25  14  63 CALM      30.32R
KNOXVILLE      CLEAR     31  14  49 N6        30.34R WCI  25
OAK RIDGE      CLEAR     31  16  54 NE3       30.36R
CROSSVILLE     CLEAR     26  14  60 CALM      30.30S
NASHVILLE      CLEAR     30  21  69 CALM      30.35S
$$

...KEY TO REMARKS...
VSB - VISIBILITY IN MILES
WCI - WIND CHILL INDEX
HX  - HEAT INDEX

$$



USA.gov is the U.S. government's official web portal to all federal, state and local government web resources and services.